Location: Huesca
(42.1318°N, 0.4078°W)
Time: 10:53:33
(UTC+02:00)

Explorer 7 - All Passes

Search period start: 15 July 2024 00:00
Search period end: 25 July 2024 00:00
Orbit: 465 x 619 km, 50.3° (Epoch: 14 July)

Date Brightness Start Highest point End Pass type
(mag) Time Alt. Az. Time Alt. Az. Time Alt. Az.
15 Jul - 02:36:41 10° S 02:39:51 18° SE 02:42:59 10° E visible
15 Jul - 04:14:31 10° WSW 04:19:06 90° SSW 04:23:37 10° ENE visible
15 Jul - 05:55:06 10° W 05:59:13 33° NNW 06:03:14 10° NE visible
15 Jul - 07:35:54 10° NW 07:39:47 29° N 07:43:32 10° ENE daylight
15 Jul - 09:15:46 10° NW 09:20:04 62° NNE 09:24:09 10° ESE daylight
15 Jul - 10:55:59 10° WNW 10:59:28 26° SW 11:02:49 10° SSE daylight
16 Jul - 02:28:01 10° S 02:31:39 24° SE 02:35:16 10° E visible
16 Jul - 04:06:28 10° WSW 04:11:03 75° NNW 04:15:33 10° ENE visible
16 Jul - 05:47:13 10° WNW 05:51:16 31° N 05:55:13 10° NE visible
16 Jul - 07:27:52 10° NW 07:31:50 30° N 07:35:39 10° ENE daylight
16 Jul - 09:07:40 10° WNW 09:12:02 76° NNE 09:16:09 10° ESE daylight
16 Jul - 10:48:11 10° W 10:51:17 20° SW 10:54:15 10° S daylight
17 Jul - 02:19:28 10° SSW 02:23:27 30° SE 02:27:25 10° ENE visible
17 Jul - 03:58:26 10° WSW 04:02:58 63° NNW 04:07:27 10° NE visible
17 Jul - 05:39:17 10° WNW 05:43:17 29° N 05:47:11 10° NE visible
17 Jul - 07:19:48 10° NW 07:23:51 33° NNE 07:27:45 10° ENE daylight
17 Jul - 08:59:34 10° WNW 09:03:57 87° SSW 09:08:04 10° SE daylight
17 Jul - 10:40:33 10° W 10:43:02 15° SW 10:45:28 10° SSW daylight
18 Jul - 02:11:01 10° SSW 02:15:14 38° SE 02:19:28 10° ENE visible
18 Jul - 03:50:25 10° WSW 03:54:54 53° NNW 03:59:19 10° NE visible
18 Jul - 05:31:20 10° WNW 05:35:17 28° N 05:39:09 10° NE visible
18 Jul - 07:11:42 10° NW 07:15:51 36° NNE 07:19:49 10° E daylight
18 Jul - 08:51:27 10° WNW 08:55:48 70° SW 08:59:55 10° SE daylight
18 Jul - 10:33:17 10° WSW 10:34:45 12° SW 10:36:12 10° SSW daylight
19 Jul - 02:02:39 10° SW 02:07:01 48° SE 02:11:25 10° ENE visible
19 Jul - 03:42:24 10° W 03:46:49 46° NNW 03:51:10 10° NE visible
19 Jul - 05:23:20 10° WNW 05:27:17 28° N 05:31:07 10° ENE visible
19 Jul - 07:03:33 10° NW 07:07:47 41° NNE 07:11:52 10° E daylight
19 Jul - 08:43:21 10° WNW 08:47:37 55° SW 08:51:41 10° SE daylight
20 Jul - 00:18:29 10° SE 00:19:50 11° SE 00:21:10 10° ESE night (unlit)
20 Jul - 01:54:20 10° SW 01:58:48 61° SE 02:03:18 10° ENE visible
20 Jul - 03:34:23 10° W 03:38:43 40° NNW 03:43:00 10° NE visible
20 Jul - 05:15:17 10° WNW 05:19:15 28° N 05:23:06 10° ENE visible
20 Jul - 06:55:22 10° NW 06:59:42 47° NNE 07:03:51 10° E daylight
20 Jul - 08:35:14 10° WNW 08:39:23 43° SW 08:43:20 10° SSE daylight
21 Jul - 00:08:57 10° SSE 00:11:28 15° SE 00:14:01 10° E night (unlit)
21 Jul - 01:46:03 10° SW 01:50:35 76° SE 01:55:08 10° ENE visible
21 Jul - 03:26:22 10° W 03:30:37 36° NNW 03:34:49 10° NE visible
21 Jul - 05:07:12 10° WNW 05:11:11 29° N 05:15:04 10° ENE visible
21 Jul - 06:47:08 10° NW 06:51:33 55° NNE 06:55:47 10° ESE daylight
21 Jul - 08:27:09 10° WNW 08:31:06 33° SW 08:34:53 10° SSE daylight
21 Jul - 23:59:55 10° S 00:03:06 19° SE 00:06:20 10° E visible
22 Jul - 01:37:48 10° WSW 01:42:21 88° NW 01:46:57 10° ENE visible
22 Jul - 03:18:20 10° WNW 03:22:29 33° NNW 03:26:37 10° NE visible
22 Jul - 04:59:03 10° NW 05:03:05 30° N 05:07:01 10° ENE visible
22 Jul - 06:38:54 10° NW 06:43:22 65° NNE 06:47:39 10° ESE daylight
22 Jul - 08:19:07 10° WNW 08:22:47 26° SW 08:26:18 10° SSE daylight
22 Jul - 23:51:06 10° S 23:54:44 24° SE 23:58:25 10° E visible
23 Jul - 01:29:35 10° WSW 01:34:07 73° NNW 01:38:42 10° NE visible
23 Jul - 03:10:16 10° WNW 03:14:22 31° N 03:18:26 10° NE visible
23 Jul - 04:50:51 10° NW 04:54:57 32° N 04:58:57 10° ENE visible
23 Jul - 06:30:38 10° WNW 06:35:09 79° NNE 06:39:28 10° ESE daylight
23 Jul - 08:11:09 10° W 08:14:24 20° SW 08:17:33 10° S daylight
23 Jul - 23:42:25 10° SSW 23:46:22 31° SE 23:50:22 10° ENE visible
24 Jul - 01:21:23 10° WSW 01:25:53 61° NNW 01:30:24 10° NE visible
24 Jul - 03:02:11 10° WNW 03:06:13 30° N 03:10:14 10° NE visible
24 Jul - 04:42:37 10° NW 04:46:48 34° NNE 04:50:53 10° E visible
24 Jul - 06:22:21 10° WNW 06:26:53 85° SSW 06:31:13 10° SE daylight
24 Jul - 08:03:19 10° W 08:05:59 16° SW 08:08:35 10° SSW daylight
24 Jul - 23:33:49 10° SSW 23:37:59 39° SE 23:42:13 10° ENE visible
